User: anonymous   Login
Location: Newark
(45.9456°N, 15.4064°E)
Time: 11:48:21
(UTC+00:00)
Language:

Tiros 1 - Orbit

View from above orbital plane
View from above orbital plane
View from above satellite
View from above satellite

Ground track
Ground track

The orbit data is extracted from the following two-line orbital elements,

1    29U 60002B   20026.80637124 -.00000134  00000-0  11012-4 0  9998
2    29  48.3790 261.8069 0024297 341.3436  18.6584 14.74338512197618
Epoch (UTC): 26 January 2020 19:21:10
Eccentricity: 0.0024297
inclination: 48.3790°
perigee height: 630 km
apogee height: 664 km
right ascension of ascending node: 261.8069°
argument of perigee: 341.3436°
revolutions per day: 14.74338512
mean anomaly at epoch: 18.6584°
orbit number at epoch: 19761

The dashed part of the orbit path shows where the satellite is in the earth's shadow,  

DLR